world map with MAN marked

MAN - Airport

This information may not be accurate or current and is not valid for navigation or flight planning. No warranty of fitness for any purpose is made or implied.

flag of Englandflag of United Kingdom

Donate via PayPal

Additional information is available on the NEW Great Circle Mapper

Location
City:  Manchester, England, United Kingdom
Name:Ringway International Airport
ICAO / IATA:EGCC / MAN

Details
Type:Airport (Aerodrome, Airfield)
Use:Public/Civil
Latitude:53°21'14"N (53.353889)
Longitude:2°16'30"W (-2.274999)
Elevation:257 ft (78 m)
Runways:2
Longest:10007 × 148 ft (3050 × 45 m)

Time
Timezone:UTC+0 (DST+3)
Local Time:

Weather
METAR:EGCC  221020Z AUTO VRB03KT 9999 NCD 17/04 Q1032
TAF:EGCC  220500Z 2206/2312 31008KT CAVOK= TAF EGKK 220452Z 2206/2312 34007KT CAVOK

Related Locations
Nearby:
Farthest:NZBA: 11826 mi / 19033 km
Balclutha, OTA, NZ

Find:

   beyond  
but within

Other Information
Maps:
Sources:

  

Airport Diagram

Airport diagram for MAN

Airport diagram PDF

 


Great Circle Mapper   Great Circle Mapper
Great Circle Mapper FAQ   Great Circle Mapper FAQ
  Karl's Home Page
KLSē   KLSē Home
   GC on Facebook
Airlines of the World   Airlines of the World
Donate via PayPal


Copyright © 2004-2018, Karl L. Swartz. All rights reserved.
All trademarks mentioned herein belong to their respective owners.

Please see credits for attribution and copyright information.

Karl Swartz <karl@kls2.com>
  Powered by FreeBSD
Valid HTML 4.01!
Labeled with ICRA
hCard Microformat
Geo Microformat